Time,TemperatureF,DewpointF,PressureIn,WindDirection,WindDirectionDegrees,WindSpeedMPH,WindSpeedGustMPH,Humidity,HourlyPrecipIn,Conditions,Clouds,dailyrainin,SoftwareType,DateUTC
2013-12-15 08:45:00,37.2,19.8,30.37,SSW,199,1.0,1.0,49,0.00,,,0.00,Wunderground v.1.15,2013-12-15 15:45:00,
2013-12-15 08:50:00,38.2,19.2,30.37,SE,134,1.0,1.0,46,0.00,,,0.00,Wunderground v.1.15,2013-12-15 15:50:00,
2013-12-15 08:55:00,39.2,19.1,30.37,SSE,148,1.0,1.0,44,0.00,,,0.00,Wunderground v.1.15,2013-12-15 15:55:00,
2013-12-15 09:00:00,39.8,19.1,30.37,SSE,155,1.0,1.0,43,0.00,,,0.00,Wunderground v.1.15,2013-12-15 16:00:00,
2013-12-15 09:10:00,41.3,20.5,30.37,SE,143,0.0,0.0,43,0.00,,,0.00,Wunderground v.1.15,2013-12-15 16:10:00,
2013-12-15 09:15:00,41.9,20.4,30.38,NE,54,0.0,2.0,42,0.00,,,0.00,Wunderground v.1.15,2013-12-15 16:15:00,
2013-12-15 09:20:00,41.9,20.4,30.37,ESE,122,0.0,0.0,42,0.00,,,0.00,Wunderground v.1.15,2013-12-15 16:20:00,
2013-12-15 09:25:00,41.9,19.9,30.38,ENE,78,0.0,0.0,41,0.00,,,0.00,Wunderground v.1.15,2013-12-15 16:25:00,
2013-12-15 09:30:00,41.3,19.9,30.38,NE,49,1.0,1.0,42,0.00,,,0.00,Wunderground v.1.15,2013-12-15 16:30:00,
2013-12-15 09:40:00,41.5,20.1,30.39,ENE,73,0.0,0.0,42,0.00,,,0.00,Wunderground v.1.15,2013-12-15 16:40:00,
2013-12-15 09:45:00,41.4,19.4,30.39,East,84,0.0,0.0,41,0.00,,,0.00,Wunderground v.1.15,2013-12-15 16:45:00,
2013-12-15 09:50:00,41.3,20.5,30.39,ENE,77,1.0,1.0,43,0.00,,,0.00,Wunderground v.1.15,2013-12-15 16:50:00,
2013-12-15 09:55:00,41.2,20.4,30.39,ENE,58,0.0,1.0,43,0.00,,,0.00,Wunderground v.1.15,2013-12-15 16:55:00,
2013-12-15 10:00:00,41.9,20.4,30.39,SSW,200,0.0,1.0,42,0.00,,,0.00,Wunderground v.1.15,2013-12-15 17:00:00,
2013-12-15 10:05:00,42.7,21.7,30.38,SE,139,0.0,2.0,43,0.00,,,0.00,Wunderground v.1.15,2013-12-15 17:05:00,
2013-12-15 10:10:00,43.3,21.1,30.38,East,86,0.0,1.0,41,0.00,,,0.00,Wunderground v.1.15,2013-12-15 17:10:00,
2013-12-15 10:15:00,44.0,21.8,30.38,SSE,148,1.0,1.0,41,0.00,,,0.00,Wunderground v.1.15,2013-12-15 17:15:00,
2013-12-15 10:25:00,45.2,21.1,30.38,ESE,115,0.0,1.0,38,0.00,,,0.00,Wunderground v.1.15,2013-12-15 17:25:00,
2013-12-15 10:30:00,45.3,21.2,30.38,ENE,62,1.0,1.0,38,0.00,,,0.00,Wunderground v.1.15,2013-12-15 17:30:00,
2013-12-15 10:40:00,46.5,22.2,30.38,SE,139,0.0,0.0,38,0.00,,,0.00,Wunderground v.1.15,2013-12-15 17:40:00,
2013-12-15 10:45:00,47.3,21.7,30.37,SSW,212,0.0,0.0,36,0.00,,,0.00,Wunderground v.1.15,2013-12-15 17:45:00,
2013-12-15 10:55:00,48.6,22.1,30.37,NNE,32,0.0,1.0,35,0.00,,,0.00,Wunderground v.1.15,2013-12-15 17:55:00,
2013-12-15 11:00:00,49.1,22.6,30.37,East,93,1.0,1.0,35,0.00,,,0.00,Wunderground v.1.15,2013-12-15 18:00:00,
2013-12-15 11:10:00,49.0,22.5,30.37,East,94,1.0,1.0,35,0.00,,,0.00,Wunderground v.1.15,2013-12-15 18:10:00,
2013-12-15 11:50:00,51.1,22.2,30.34,SSW,210,0.0,0.0,32,0.00,,,0.00,Wunderground v.1.15,2013-12-15 18:50:00,
2013-12-15 11:55:00,51.9,23.7,30.34,NE,53,0.0,0.0,33,0.00,,,0.00,Wunderground v.1.15,2013-12-15 18:55:00,
2013-12-15 12:00:00,52.6,22.8,30.33,ENE,68,0.0,1.0,31,0.00,,,0.00,Wunderground v.1.15,2013-12-15 19:00:00,
2013-12-15 12:10:00,52.8,23.0,30.33,NE,50,0.0,0.0,31,0.00,,,0.00,Wunderground v.1.15,2013-12-15 19:10:00,
2013-12-15 12:15:00,53.6,22.9,30.33,NE,55,0.0,2.0,30,0.00,,,0.00,Wunderground v.1.15,2013-12-15 19:15:00,
2013-12-15 12:25:00,54.2,22.6,30.32,ENE,77,1.0,2.0,29,0.00,,,0.00,Wunderground v.1.15,2013-12-15 19:25:00,
2013-12-15 12:30:00,54.6,22.1,30.32,East,93,1.0,1.0,28,0.00,,,0.00,Wunderground v.1.15,2013-12-15 19:30:00,
2013-12-15 12:40:00,56.0,23.3,30.31,SSW,204,0.0,0.0,28,0.00,,,0.00,Wunderground v.1.15,2013-12-15 19:40:00,
2013-12-15 12:45:00,57.0,24.2,30.31,ENE,73,0.0,2.0,28,0.00,,,0.00,Wunderground v.1.15,2013-12-15 19:45:00,
2013-12-15 12:55:00,56.8,23.1,30.31,SE,127,1.0,1.0,27,0.00,,,0.00,Wunderground v.1.15,2013-12-15 19:55:00,
2013-12-15 13:00:00,57.5,22.8,30.30,ESE,107,1.0,1.0,26,0.00,,,0.00,Wunderground v.1.15,2013-12-15 20:00:00,
2013-12-15 13:10:00,58.2,22.5,30.30,ENE,75,0.0,1.0,25,0.00,,,0.00,Wunderground v.1.15,2013-12-15 20:10:00,
2013-12-15 13:15:00,59.0,23.2,30.29,WNW,283,0.0,1.0,25,0.00,,,0.00,Wunderground v.1.15,2013-12-15 20:15:00,
2013-12-15 13:25:00,60.2,23.2,30.29,SW,233,0.0,0.0,24,0.00,,,0.00,Wunderground v.1.15,2013-12-15 20:25:00,
2013-12-15 13:30:00,61.0,23.9,30.29,East,85,0.0,2.0,24,0.00,,,0.00,Wunderground v.1.15,2013-12-15 20:30:00,
2013-12-15 13:40:00,62.1,22.8,30.28,WSW,248,1.0,1.0,22,0.00,,,0.00,Wunderground v.1.15,2013-12-15 20:40:00,
2013-12-15 13:45:00,62.5,23.1,30.28,NE,37,1.0,2.0,22,0.00,,,0.00,Wunderground v.1.15,2013-12-15 20:45:00,
2013-12-15 13:55:00,62.8,21.1,30.28,ENE,75,1.0,2.0,20,0.00,,,0.00,Wunderground v.1.15,2013-12-15 20:55:00,
2013-12-15 14:00:00,62.8,22.2,30.28,NNE,24,1.0,1.0,21,0.00,,,0.00,Wunderground v.1.15,2013-12-15 21:00:00,
2013-12-15 14:10:00,63.9,23.2,30.28,SSW,202,1.0,1.0,21,0.00,,,0.00,Wunderground v.1.15,2013-12-15 21:10:00,
2013-12-15 14:15:00,64.3,22.3,30.28,ESE,103,1.0,1.0,20,0.00,,,0.00,Wunderground v.1.15,2013-12-15 21:15:00,
2013-12-15 14:25:00,64.4,22.4,30.28,North,8,1.0,3.0,20,0.00,,,0.00,Wunderground v.1.15,2013-12-15 21:25:00,
2013-12-15 14:30:00,64.5,20.0,30.27,NNE,19,1.0,3.0,18,0.00,,,0.00,Wunderground v.1.15,2013-12-15 21:30:00,
2013-12-15 14:40:00,64.3,22.3,30.27,ENE,72,1.0,1.0,20,0.00,,,0.00,Wunderground v.1.15,2013-12-15 21:40:00,
2013-12-15 14:45:00,64.7,21.4,30.27,ESE,110,1.0,1.0,19,0.00,,,0.00,Wunderground v.1.15,2013-12-15 21:45:00,
2013-12-15 14:55:00,64.9,21.6,30.27,NNE,33,1.0,1.0,19,0.00,,,0.00,Wunderground v.1.15,2013-12-15 21:55:00,
2013-12-15 15:00:00,64.8,20.2,30.27,West,266,1.0,1.0,18,0.00,,,0.00,Wunderground v.1.15,2013-12-15 22:00:00,
2013-12-15 15:15:00,65.0,22.9,30.26,North,354,1.0,1.0,20,0.00,,,0.00,Wunderground v.1.15,2013-12-15 22:15:00,
2013-12-15 15:25:00,64.9,21.6,30.26,WNW,297,2.0,2.0,19,0.00,,,0.00,Wunderground v.1.15,2013-12-15 22:25:00,
2013-12-15 15:30:00,64.9,21.6,30.25,NW,311,2.0,2.0,19,0.00,,,0.00,Wunderground v.1.15,2013-12-15 22:30:00,
2013-12-15 15:40:00,64.6,21.4,30.25,NNW,330,1.0,1.0,19,0.00,,,0.00,Wunderground v.1.15,2013-12-15 22:40:00,
2013-12-15 15:45:00,64.5,21.3,30.25,NNW,333,1.0,1.0,19,0.00,,,0.00,Wunderground v.1.15,2013-12-15 22:45:00,
2013-12-15 15:55:00,64.7,21.4,30.25,NNE,23,0.0,1.0,19,0.00,,,0.00,Wunderground v.1.15,2013-12-15 22:55:00,
2013-12-15 16:00:00,64.7,22.7,30.25,NW,325,0.0,1.0,20,0.00,,,0.00,Wunderground v.1.15,2013-12-15 23:00:00,
2013-12-15 16:10:00,64.7,21.4,30.25,NW,309,0.0,0.0,19,0.00,,,0.00,Wunderground v.1.15,2013-12-15 23:10:00,
2013-12-15 16:15:00,64.5,21.3,30.25,NW,311,0.0,0.0,19,0.00,,,0.00,Wunderground v.1.15,2013-12-15 23:15:00,
2013-12-15 16:25:00,63.8,21.9,30.25,NW,311,0.0,0.0,20,0.00,,,0.00,Wunderground v.1.15,2013-12-15 23:25:00,
2013-12-15 16:30:00,63.0,23.5,30.25,NW,304,0.0,0.0,22,0.00,,,0.00,Wunderground v.1.15,2013-12-15 23:30:00,
2013-12-15 16:40:00,58.8,23.9,30.26,WNW,289,0.0,0.0,26,0.00,,,0.00,Wunderground v.1.15,2013-12-15 23:40:00,
2013-12-15 16:45:00,56.1,24.2,30.26,SW,225,1.0,1.0,29,0.00,,,0.00,Wunderground v.1.15,2013-12-15 23:45:00,
2013-12-15 16:55:00,54.5,23.7,30.26,SSW,199,0.0,0.0,30,0.00,,,0.00,Wunderground v.1.15,2013-12-15 23:55:00,
2013-12-15 17:00:00,53.1,23.2,30.26,SSW,199,0.0,0.0,31,0.00,,,0.00,Wunderground v.1.15,2013-12-16 00:00:00,
2013-12-15 17:10:00,51.3,23.1,30.26,West,279,1.0,1.0,33,0.00,,,0.00,Wunderground v.1.15,2013-12-16 00:10:00,
2013-12-15 17:15:00,51.1,23.0,30.25,West,271,2.0,2.0,33,0.00,,,0.00,Wunderground v.1.15,2013-12-16 00:15:00,
2013-12-15 17:25:00,51.7,22.8,30.26,SW,223,1.0,2.0,32,0.00,,,0.00,Wunderground v.1.15,2013-12-16 00:25:00,
2013-12-15 17:30:00,51.4,22.5,30.26,WSW,248,0.0,0.0,32,0.00,,,0.00,Wunderground v.1.15,2013-12-16 00:30:00,
2013-12-15 17:40:00,49.9,23.3,30.26,West,275,1.0,1.0,35,0.00,,,0.00,Wunderground v.1.15,2013-12-16 00:40:00,
2013-12-15 17:45:00,49.2,23.4,30.26,West,264,1.0,1.0,36,0.00,,,0.00,Wunderground v.1.15,2013-12-16 00:45:00,
2013-12-15 17:55:00,48.6,22.8,30.26,West,259,1.0,1.0,36,0.00,,,0.00,Wunderground v.1.15,2013-12-16 00:55:00,
2013-12-15 18:00:00,48.0,22.9,30.26,West,268,1.0,1.0,37,0.00,,,0.00,Wunderground v.1.15,2013-12-16 01:00:00,
2013-12-15 18:10:00,47.8,22.8,30.27,West,271,2.0,2.0,37,0.00,,,0.00,Wunderground v.1.15,2013-12-16 01:10:00,
2013-12-15 18:15:00,47.1,22.8,30.27,WSW,251,2.0,2.0,38,0.00,,,0.00,Wunderground v.1.15,2013-12-16 01:15:00,
2013-12-15 18:25:00,46.4,22.8,30.28,West,271,1.0,1.0,39,0.00,,,0.00,Wunderground v.1.15,2013-12-16 01:25:00,
2013-12-15 18:30:00,46.3,22.0,30.28,West,269,0.0,0.0,38,0.00,,,0.00,Wunderground v.1.15,2013-12-16 01:30:00,
2013-12-15 18:40:00,45.8,22.8,30.28,West,271,1.0,2.0,40,0.00,,,0.00,Wunderground v.1.15,2013-12-16 01:40:00,
2013-12-15 18:45:00,45.6,22.6,30.28,West,271,1.0,2.0,40,0.00,,,0.00,Wunderground v.1.15,2013-12-16 01:45:00,
2013-12-15 18:55:00,45.6,22.6,30.29,WSW,258,1.0,2.0,40,0.00,,,0.00,Wunderground v.1.15,2013-12-16 01:55:00,
2013-12-15 19:00:00,45.3,23.0,30.29,West,266,1.0,1.0,41,0.00,,,0.00,Wunderground v.1.15,2013-12-16 02:00:00,
2013-12-15 19:10:00,44.5,22.2,30.29,West,281,1.0,1.0,41,0.00,,,0.00,Wunderground v.1.15,2013-12-16 02:10:00,
2013-12-15 19:15:00,44.1,22.4,30.29,West,267,1.0,1.0,42,0.00,,,0.00,Wunderground v.1.15,2013-12-16 02:15:00,
2013-12-15 19:25:00,44.0,22.4,30.29,West,266,0.0,1.0,42,0.00,,,0.00,Wunderground v.1.15,2013-12-16 02:25:00,
2013-12-15 19:30:00,44.5,21.6,30.29,SSW,206,1.0,1.0,40,0.00,,,0.00,Wunderground v.1.15,2013-12-16 02:30:00,
2013-12-15 19:40:00,48.5,21.4,30.29,SSW,203,2.0,2.0,34,0.00,,,0.00,Wunderground v.1.15,2013-12-16 02:40:00,
2013-12-15 19:45:00,49.0,21.1,30.30,SSW,196,1.0,2.0,33,0.00,,,0.00,Wunderground v.1.15,2013-12-16 02:45:00,
2013-12-15 19:55:00,46.0,21.8,30.30,West,271,0.0,1.0,38,0.00,,,0.00,Wunderground v.1.15,2013-12-16 02:55:00,
2013-12-15 20:00:00,44.5,21.6,30.30,West,270,1.0,1.0,40,0.00,,,0.00,Wunderground v.1.15,2013-12-16 03:00:00,
2013-12-15 20:10:00,43.3,21.7,30.30,West,274,1.0,1.0,42,0.00,,,0.00,Wunderground v.1.15,2013-12-16 03:10:00,
2013-12-15 20:15:00,42.9,21.4,30.30,WNW,290,1.0,1.0,42,0.00,,,0.00,Wunderground v.1.15,2013-12-16 03:15:00,
2013-12-15 20:25:00,43.0,21.4,30.30,West,267,1.0,2.0,42,0.00,,,0.00,Wunderground v.1.15,2013-12-16 03:25:00,
2013-12-15 20:30:00,43.1,21.5,30.30,West,278,1.0,1.0,42,0.00,,,0.00,Wunderground v.1.15,2013-12-16 03:30:00,
2013-12-15 20:40:00,44.9,21.4,30.30,West,278,2.0,3.0,39,0.00,,,0.00,Wunderground v.1.15,2013-12-16 03:40:00,
2013-12-15 20:50:00,46.3,21.4,30.31,WNW,292,3.0,3.0,37,0.00,,,0.00,Wunderground v.1.15,2013-12-16 03:50:00,
2013-12-15 20:55:00,47.2,20.9,30.31,West,281,3.0,3.0,35,0.00,,,0.00,Wunderground v.1.15,2013-12-16 03:55:00,
2013-12-15 21:00:00,46.8,20.6,30.31,West,263,1.0,1.0,35,0.00,,,0.00,Wunderground v.1.15,2013-12-16 04:00:00,
2013-12-15 21:10:00,46.4,20.9,30.31,West,276,1.0,1.0,36,0.00,,,0.00,Wunderground v.1.15,2013-12-16 04:10:00,
2013-12-15 21:15:00,46.7,20.5,30.31,NW,311,1.0,2.0,35,0.00,,,0.00,Wunderground v.1.15,2013-12-16 04:15:00,
2013-12-15 21:25:00,45.5,20.7,30.31,West,264,0.0,1.0,37,0.00,,,0.00,Wunderground v.1.15,2013-12-16 04:25:00,
2013-12-15 21:30:00,45.2,20.4,30.31,West,270,0.0,0.0,37,0.00,,,0.00,Wunderground v.1.15,2013-12-16 04:30:00,